Weather History for KBKW - May, 2013

Change the Weather History Date:

Sunday, May 12, 2013

  Actual Average Record
Temperature  
Mean Temperature 47 °F 59 °F  
Max Temperature 53 °F 69 °F 85 °F (1936)
Min Temperature 41 °F 48 °F 24 °F (1940)
Degree Days  
Heating Degree Days 18 7  
Month to date heating degree days 99 95  
Since 1 July heating degree days 5188 5204  
Cooling Degree Days 0 1  
Month to date cooling degree days 2 6  
Year to date cooling degree days 18 16  
Moisture  
Dew Point 35 °F    
Average Humidity 60    
Maximum Humidity 82    
Minimum Humidity 38    
Precipitation  
Precipitation 0.03 in 0.15 in 1.55 in (2010)
Month to date precipitation 2.62 1.72  
Year to date precipitation 13.69 14.22  
Snow  
Snow 0.00 in - - ()
Month to date snowfall 0.0  
Since 1 September snowfall 72.0  
Snow Depth 0.00 in    
Sea Level Pressure  
Sea Level Pressure 29.98 in    
Wind  
Wind Speed 9 mph (NW)    
Max Wind Speed 23 mph    
Max Gust Speed 30 mph    
Visibility 9 miles    
Events Rain    
T = Trace of Precipitation, MM = Missing Value Source: NWS Daily Summary

Daily Weather History Graph

Daily Weather History Graph

Search for Another Location

Airport or City:

Trip Planner

Search our weather history database for the weather conditions in past years. The results will help you decide how hot, cold, wet, or windy it might be!

Date:

Astronomy

May. 12, 2013 Rise Set
Actual Time 6:17 AM EDT 8:25 PM EDT
Civil Twilight 5:47 AM EDT 8:54 PM EDT
Nautical Twilight 5:12 AM EDT 9:30 PM EDT
Astronomical Twilight 4:33 AM EDT 10:09 PM EDT
Moon 8:11 AM EDT (5/12) 10:50 PM EDT (5/12)
Length of Visible Light 15h 06m
Length of Day
14h 08m
Waxing Crescent, 6% of the Moon is Illuminated
May 12
Waxing Crescent
May 18
First Quarter
May 25
Full
May 31
Last Quarter
Jun 8
New

Hourly Weather History & Observations

Time (EDT) Temp. Windchill Dew Point Humidity Pressure Visibility Wind Dir Wind Speed Gust Speed Precip Events Conditions
12:51 AM 51.1 °F - 44.1 °F 77% 29.91 in 10.0 mi WNW 10.4 mph - N/A   Partly Cloudy
1:27 AM 51.8 °F - 44.6 °F 76% 29.94 in 10.0 mi WNW 6.9 mph - N/A   Overcast
1:38 AM 50.0 °F - 44.6 °F 82% 29.94 in 10.0 mi WNW 8.1 mph - N/A   Overcast
1:51 AM 50.0 °F - 44.1 °F 80% 29.90 in 10.0 mi WNW 9.2 mph - N/A   Overcast
1:58 AM 50.0 °F - 44.6 °F 82% 29.94 in 10.0 mi West 6.9 mph - N/A   Overcast
2:26 AM 50.0 °F - 44.6 °F 82% 29.93 in 10.0 mi West 6.9 mph - N/A   Overcast
2:40 AM 50.0 °F - 44.6 °F 82% 29.93 in 10.0 mi West 6.9 mph - N/A   Overcast
2:51 AM 50.0 °F - 44.1 °F 80% 29.88 in 10.0 mi West 5.8 mph - N/A   Overcast
3:51 AM 48.9 °F - 45.0 °F 86% 29.87 in 5.0 mi WSW 5.8 mph - 0.00 in Rain Light Rain
4:11 AM 46.4 °F 38.3 °F 42.8 °F 87% 29.93 in 3.0 mi North 23.0 mph 29.9 mph 0.02 in Rain Heavy Rain
4:19 AM 44.6 °F 37.4 °F 41.0 °F 87% 29.94 in 5.0 mi NNW 16.1 mph 29.9 mph 0.03 in Rain Light Rain
4:26 AM 44.6 °F 37.8 °F 39.2 °F 81% 29.94 in 6.0 mi NNW 15.0 mph 21.9 mph 0.03 in Rain Light Rain
4:44 AM 42.8 °F 38.0 °F 39.2 °F 87% 29.94 in 10.0 mi NW 8.1 mph - 0.03 in   Overcast
4:51 AM 43.0 °F 38.2 °F 39.0 °F 86% 29.92 in 10.0 mi NNW 8.1 mph - 0.03 in   Overcast
5:24 AM 42.8 °F 38.6 °F 39.2 °F 87% 29.95 in 10.0 mi NNW 6.9 mph - N/A   Overcast
5:51 AM 42.1 °F 37.1 °F 37.9 °F 85% 29.93 in 10.0 mi NW 8.1 mph - N/A   Overcast
6:51 AM 41.0 °F 35.8 °F 35.1 °F 79% 29.95 in 10.0 mi NNW 8.1 mph - N/A   Overcast
7:51 AM 42.1 °F 38.4 °F 34.0 °F 73% 29.98 in 10.0 mi NNW 5.8 mph - N/A   Overcast
8:51 AM 43.0 °F 38.2 °F 34.0 °F 71% 29.99 in 10.0 mi NW 8.1 mph - N/A   Overcast
9:51 AM 44.1 °F 40.8 °F 32.0 °F 63% 30.01 in 10.0 mi WNW 5.8 mph - N/A   Mostly Cloudy
10:51 AM 46.0 °F 40.2 °F 28.9 °F 51% 30.01 in 10.0 mi NW 12.7 mph 19.6 mph N/A   Mostly Cloudy
11:51 AM 48.0 °F - 26.1 °F 42% 30.00 in 10.0 mi NNW 17.3 mph 26.5 mph N/A   Mostly Cloudy
12:51 PM 48.0 °F - 27.0 °F 44% 30.02 in 10.0 mi WNW 9.2 mph - N/A   Overcast
1:51 PM 50.0 °F - 28.0 °F 43% 30.02 in 10.0 mi WNW 8.1 mph 18.4 mph N/A   Overcast
2:51 PM 50.0 °F - 27.0 °F 41% 30.02 in 10.0 mi WNW 15.0 mph 20.7 mph N/A   Overcast
3:51 PM 50.0 °F - 28.0 °F 43% 30.02 in 10.0 mi NNW 12.7 mph 21.9 mph N/A   Overcast
4:51 PM 53.1 °F - 28.0 °F 38% 30.02 in 10.0 mi WNW 11.5 mph 20.7 mph N/A   Mostly Cloudy
5:51 PM 53.1 °F - 28.0 °F 38% 30.03 in 10.0 mi NNW 12.7 mph - N/A   Mostly Cloudy
6:51 PM 50.0 °F - 27.0 °F 41% 30.04 in 10.0 mi NW 13.8 mph 19.6 mph N/A   Mostly Cloudy
7:51 PM 48.9 °F - 27.0 °F 43% 30.06 in 10.0 mi WNW 10.4 mph - N/A   Mostly Cloudy
8:51 PM 46.0 °F 43.1 °F 28.0 °F 50% 30.07 in 10.0 mi WNW 5.8 mph - N/A   Partly Cloudy
9:51 PM 44.1 °F 41.5 °F 28.0 °F 53% 30.10 in 10.0 mi WNW 4.6 mph - N/A   Partly Cloudy
10:51 PM 44.1 °F 41.5 °F 28.9 °F 55% 30.12 in 10.0 mi West 4.6 mph - N/A   Overcast
11:51 PM 44.1 °F 40.1 °F 28.0 °F 53% 30.12 in 10.0 mi NW 6.9 mph - N/A   Scattered Clouds